Tracking 29528 objects as of 14-Sep-2024
HD Live streaming from Space Station
objects crossing your sky now

STARLINK-31952

Track STARLINK-31952 now!
10-day predictions
STARLINK-31952 is classified as:


NORAD ID: 59867
Int'l Code: 2024-098K
Perigee: 450.4 km
Apogee: 452.5 km
Inclination: 43.0 °
Period: 93.5 minutes
Semi major axis: 6822 km
RCS: Unknown
Launch date: May 24, 2024
Source: United States (US)
Launch site: AIR FORCE EASTERN TEST RANGE (AFETR)
Your satellite tracking list
Your tracking list is empty




NASA's NSSDC Master Catalog

Two Line Element Set (TLE):
1 59867U 24098K   24257.98195322 -.00022995  00000-0 -54628-3 0  9994
2 59867  43.0011 122.8273 0001551 272.7619  87.3060 15.40621714 18056
Source of the keplerian elements: AFSPC